Home > Weather > Wake Island > Past weeks

Flag for US Minor Outlying Islands Weather for the Past 2 Weeks in Wake Island, US Minor Outlying Islands

Now
81 °F

Haze.


Feels Like: 85 °F
Forecast: 76 / 83 °F
Wind: 21 mph from East

Location: Wake Island Airfld

Current Time: Feb 7, 2016 at 12:00:43 PM

Latest Report: Feb 7, 2016 at 10:58 AM


Visibility: 6 mi

Pressure: 30.11 "Hg

Humidity: 71%

Dew point: 71 °F

Location of Wake IslandLocation

Historic Weather in Wake Island — Graph

°F

Wake Island Temperature Yesterday

Maximum temperature yesterday: 83 °F (at 12:58 PM)
Minimum temperature yesterday: 75 °F (at 3:03 AM)
Average temperature yesterday: 79 °F

High & Low Weather Summary for the Past Weeks

 TemperatureHumidityPressure
High83 °F (Feb 2, 12:58 PM)94% (Jan 25, 9:03 AM)30.17 "Hg (Jan 25, 9:03 AM)
Low73 °F (Jan 29, 6:58 AM)50% (Jan 30, 11:58 AM)29.92 "Hg (Feb 4, 3:58 PM)
Average78 °F69%30.04 "Hg
* Reported Jan 23 9:58 AM — Feb 7 9:58 AM, Wake Island, Weather by CustomWeather, © 2016

Note: Actual official high and low records may vary slightly from our data, if they occured in-between our weather recording intervals... More about our weather records

Advertising

Wake Island Weather History for the Previous 24 Hours

 ConditionsComfort  
Time TempWeatherWind HumidityBarometerVisibility
9:58 AM
Sun, Feb 7
81 °FPartly sunny.20 mph73%30.11 "HgN/A
8:58 AM77 °FBroken clouds.16 mph82%30.10 "Hg5 mi
7:58 AM77 °FPassing clouds.20 mph77%30.08 "Hg5 mi
7:03 AM77 °FPartly cloudy.17 mph79%30.06 "HgN/A
5:58 AM77 °FPassing clouds.15 mph77%30.06 "HgN/A
4:58 AM77 °FPassing clouds.18 mph78%30.06 "HgN/A
3:58 AM77 °FPartly cloudy.17 mph77%30.06 "HgN/A
2:58 AM76 °FClear.15 mph78%30.07 "HgN/A
1:58 AM77 °FPassing clouds.18 mph77%30.09 "HgN/A
12:58 AM77 °FPassing clouds.18 mph77%30.09 "HgN/A
11:58 PM
Sat, Feb 6
77 °FPartly cloudy.16 mph76%30.09 "HgN/A
10:58 PM78 °FClear.14 mph72%30.10 "HgN/A
9:58 PM78 °FPassing clouds.18 mph69%30.09 "HgN/A
8:58 PM78 °FPassing clouds.16 mph70%30.09 "HgN/A
7:58 PM78 °FPassing clouds.18 mph70%30.07 "HgN/A
6:58 PM78 °FPassing clouds.18 mph70%30.03 "HgN/A
5:58 PM80 °FSunny.20 mph66%30.02 "Hg6 mi
4:58 PM82 °FSunny.18 mph62%30.00 "HgN/A
3:58 PM82 °FSunny.20 mph60%29.99 "HgN/A
2:58 PM83 °FSunny.16 mph57%29.99 "HgN/A
1:58 PM83 °FSunny.15 mph57%30.01 "HgN/A
12:58 PM83 °FSunny.17 mph56%30.04 "HgN/A
Weather by CustomWeather, © 2016

See weather overviewHow to use our weather pages